Location: Battersea Observatory
(44.4318°N, 76.3841°W)
Time: 22:29:30
(UTC-04:00)

Tiros 1 despin weight - Pass Details

Date: 25 January 2022
Orbit: 592 x 639 km, 48.2° (Epoch: 25 May)

Event Time Altitude Azimuth Distance (km) Brightness Sun altitude
Rises 22:54:02 0° 290° (WNW) 2,931 - -58.9°
Reaches altitude 10° 22:56:32 10° 280° (W) 2,025 - -59.2°
Maximum altitude 23:00:40 32° 218° (SW) 1,104 - -59.6°
Drops below altitude 10° 23:04:48 10° 156° (SSE) 2,024 - -60.1°
Sets 23:07:19 0° 146° (SE) 2,929 - -60.4°
